sat.trackr.live / text

‹ back to catalog

STARLINK-34741

NORAD 65097 · 2025-167V

PAYLOAD ACTIVE UNKNOWN

§ Identity

Operator
Country
US
Launch date
2025-08-04
Launch site
AFETR
Launch vehicle
Mass (kg)
RCS (m²)

Purposes: comms

External: N2YO · Heavens-Above · Gunter

§ Orbital elements

Epoch: 2026-09-20T02:14:51.978624Z

Period
93.85 min
Inclination
53.1579°
Eccentricity
0.0000590
Mean motion
15.34406567 rev/d
Perigee alt
462.3 km
Apogee alt
463.1 km
Semi-major
6,840.8 km
B*
8.5363e-4
RAAN
195.8772°
Arg perigee
75.3245°
Mean anomaly
284.7823°
Rev number
6,335

§ Raw data

STARLINK-347411 65097U 25167V   26263.09365716  .00028581  00000+0  85363-3 0  99952 65097  53.1579 195.8772 0000590  75.3245 284.7823 15.34406567 63350

JSON: /api/v1/satellites/65097 · /tle

For live sub-satellite position, see the globe view (requires WebGL).

§ Visibility from observer

Set your observer location to see the next 7 days of passes ≥ 10°. The values pass through the URL so the page stays shareable.

No JS? Fill the form by hand. The geolocation button needs JavaScript.